Wind_Speed
14 14 14 15 15 15 15 15 15 14 14 14 13 13 14 13 14 15 16 16 17 17 17 16 16 15 15 14 14 13 12 12 11 11 12 12 14 14 14 14 14 14 15
15 15 15 15 15 15 15 16 15 14 13 12 12 12 12 13 14 14 16 17 17 18 18 17 18 17 16 15 15 15 14 13 13 13 13 13 13 13 13 13 13 14 15
15 15 15 16 17 16 16 16 14 14 12 11 10 10 10 12 12 14 16 17 18 19 19 19 18 18 17 17 16 16 15 15 15 15 15 15 14 14 14 14 13 14 14
15 16 16 17 17 17 17 16 14 13 11 10 9 9 9 11 12 13 15 16 18 19 20 20 19 19 18 18 17 17 16 17 17 17 16 15 16 15 15 14 14 14 14
15 16 17 18 18 18 18 16 14 12 11 9 8 8 8 9 11 12 14 16 17 19 20 20 20 20 20 19 18 18 18 18 18 18 17 16 16 16 15 15 15 15 14
16 17 18 18 19 18 17 16 14 12 10 9 7 6 6 7 8 10 13 15 16 18 20 20 20 20 21 20 19 19 19 19 19 19 18 18 17 16 16 15 15 15 15
16 18 18 19 19 18 17 16 14 12 10 9 7 5 4 5 6 9 11 14 16 17 19 20 21 21 21 21 20 20 20 21 20 20 19 19 18 17 17 16 15 15 15
16 18 19 19 18 18 17 16 15 13 11 9 7 5 3 3 5 7 10 12 15 17 18 20 21 21 22 22 21 21 22 21 21 21 20 20 19 18 17 17 16 16 16
16 17 19 19 18 18 17 17 16 14 11 9 7 5 3 2 2 5 8 11 13 15 17 20 20 21 22 23 23 22 22 22 22 21 21 20 20 20 18 18 17 17 17
17 18 18 19 19 18 18 17 16 14 12 9 7 5 3 2 1 4 6 9 11 14 16 19 20 20 22 23 24 23 23 23 22 22 22 22 21 21 21 20 19 18 18
17 18 19 19 19 19 19 18 17 14 12 10 8 6 5 3 0 3 6 8 10 13 14 17 19 20 21 22 23 23 24 23 23 23 23 23 22 22 22 21 21 20 20
17 17 18 18 18 18 19 18 17 15 13 11 9 7 5 3 1 2 4 6 9 11 14 16 18 19 21 22 22 23 24 23 23 24 24 24 23 23 23 23 22 22 21
17 18 18 19 18 18 18 18 18 17 14 12 10 8 6 4 2 1 2 4 7 9 12 15 18 19 20 21 22 23 24 24 24 24 24 25 25 24 23 24 24 23 23
17 18 19 19 19 18 18 18 18 17 16 14 12 9 7 5 3 1 1 3 5 8 11 13 16 18 19 19 21 23 24 25 24 24 24 24 25 25 25 25 24 24 24
17 18 19 19 19 19 18 18 17 17 16 14 12 10 8 6 4 2 2 3 5 7 9 12 14 16 17 18 20 22 23 24 24 24 25 25 25 25 25 25 25 25 26
17 17 18 19 20 20 20 19 18 17 16 15 13 11 9 7 5 4 3 4 5 6 8 11 13 15 18 19 21 23 23 24 25 24 26 26 26 26 26 26 26 26 27
17 18 18 19 20 20 21 20 20 18 17 15 14 12 10 9 7 6 5 5 6 7 8 10 13 15 17 18 21 23 23 24 25 25 26 27 27 27 27 28 28 27 27
16 18 19 19 20 21 21 21 21 20 18 17 15 14 12 11 9 8 7 7 8 8 9 10 12 14 16 18 20 22 24 25 26 26 27 28 27 28 28 28 29 29 28
17 18 19 19 20 21 22 22 22 21 20 18 16 15 14 13 12 11 10 10 10 10 11 12 13 15 17 18 20 21 23 25 26 27 28 29 29 28 29 29 30 30 30
17 18 19 20 21 21 22 23 23 23 22 20 19 17 16 16 15 14 13 12 12 12 13 14 15 16 18 19 21 22 23 25 26 27 29 30 30 30 29 30 31 31 31
18 19 20 21 22 23 24 24 24 24 23 22 21 20 19 18 18 17 16 16 15 15 15 16 17 18 19 20 21 23 24 25 26 28 29 31 32 32 32 32 32 32 32
19 20 21 22 24 25 26 27 27 26 26 25 25 23 22 21 20 20 20 19 19 19 18 18 19 21 21 22 22 24 25 26 28 29 30 31 33 33 35 35 34 34 34
21 22 23 25 26 27 28 29 29 29 29 29 28 27 25 24 24 23 23 22 21 21 22 22 22 23 24 25 25 26 26 27 29 31 32 32 33 33 35 35 36 35 35
23 24 26 27 29 30 31 31 31 32 32 32 32 30 29 27 26 26 26 26 25 25 25 25 25 25 26 27 28 29 29 30 31 32 32 33 34 35 35 36 36 37 36
26 27 28 30 31 32 33 34 34 35 35 35 35 34 32 30 28 28 29 30 30 30 29 29 29 29 29 29 30 32 32 32 32 33 34 34 35 35 36 36 36 36 36
29 31 32 33 35 36 37 37 38 38 38 38 38 38 36 34 33 32 32 33 34 34 34 33 33 33 33 33 33 34 34 34 34 34 35 36 36 36 36 36 36 36 36
Wind_Direction
352 350 347 344 338 334 328 322 318 312 304 295 284 275 264 257 247 242 236 230 224 221 219 215 212 211 210 208 205 201 198 191 185 178 171 166 159 157 156 156 156 161 161
355 354 353 349 345 340 335 329 322 316 311 300 287 276 263 254 247 241 233 228 222 218 216 214 212 210 208 208 203 200 199 194 190 185 180 174 169 166 163 163 162 164 165
357 357 355 352 349 345 342 337 331 325 319 307 292 278 264 253 248 239 231 224 220 216 214 213 211 208 208 207 204 201 199 197 195 191 185 182 179 176 173 172 171 169 168
360 358 354 353 351 348 345 343 341 335 326 316 302 285 269 256 248 238 228 222 218 214 213 212 209 206 206 207 204 202 202 200 195 192 190 188 185 182 179 177 177 176 175
2 360 357 356 354 350 348 347 347 344 338 327 312 293 276 259 245 234 225 220 216 214 212 211 209 207 205 207 205 204 205 200 197 194 195 194 190 186 185 183 182 180 179
2 360 358 357 355 353 353 352 351 350 345 338 326 305 281 260 240 230 222 217 215 213 211 210 209 208 206 206 205 204 202 200 198 197 198 197 195 193 192 191 189 188 186
1 360 358 357 356 357 358 358 356 353 351 347 339 325 294 261 236 225 218 214 213 212 211 209 209 208 208 207 206 203 201 200 201 201 201 201 200 198 196 195 195 193 194
1 2 360 360 1 2 2 3 3 360 357 355 350 340 320 275 235 219 213 212 211 210 208 207 208 208 206 205 205 204 203 203 203 202 202 204 205 203 201 201 200 200 201
3 4 5 4 5 6 5 3 4 5 3 2 0 355 342 295 237 211 207 207 207 207 206 205 206 207 205 206 205 205 205 205 206 206 206 207 208 207 208 207 207 207 208
6 6 6 6 7 7 8 8 7 6 7 8 9 9 4 339 217 201 203 205 206 206 205 205 206 208 206 204 206 208 208 209 209 210 210 211 212 212 212 212 212 212 214
7 7 8 9 9 10 9 10 11 12 13 13 14 18 19 17 111 190 198 203 207 208 207 206 207 206 206 205 207 209 210 211 212 212 212 214 216 215 213 215 215 217 219
8 8 9 10 11 12 12 12 13 15 17 17 18 21 24 28 53 177 196 204 209 211 210 209 208 207 206 208 210 212 212 212 212 213 215 217 217 217 218 218 219 220 222
9 10 10 11 11 12 12 14 16 16 15 15 15 18 20 20 34 144 204 214 214 214 213 211 210 209 210 212 212 213 214 214 215 217 219 220 219 219 220 221 223 224 224
9 9 9 9 9 9 10 11 13 14 13 12 12 11 11 13 12 356 236 221 217 219 217 216 215 216 213 213 213 214 215 215 218 220 220 220 221 222 224 223 225 226 227
9 8 8 8 8 7 6 5 6 8 8 7 7 4 2 357 350 329 270 233 230 228 224 221 222 220 218 220 218 217 217 218 221 223 222 223 224 224 225 226 227 229 230
6 7 6 6 6 6 4 2 1 0 1 2 2 360 358 352 337 315 283 256 245 242 235 228 225 223 224 225 223 220 221 223 223 224 224 225 226 226 228 229 230 232 233
1 1 2 2 2 2 1 0 358 355 354 354 354 353 350 348 343 324 299 274 257 254 246 236 231 228 228 229 226 224 225 227 227 227 227 227 228 229 231 232 233 234 236
355 356 357 358 357 357 357 356 355 352 349 346 344 341 337 333 331 325 308 291 274 264 255 244 237 234 233 231 230 228 228 229 231 231 231 230 230 232 233 233 234 236 239
349 350 351 351 351 351 351 350 349 347 346 342 336 330 325 319 315 313 307 297 285 274 264 253 246 242 238 237 236 234 234 232 232 233 234 233 232 234 234 235 237 238 240
343 345 345 345 344 344 344 343 342 341 338 335 330 326 320 312 305 301 298 294 289 281 269 260 253 248 244 241 239 237 237 237 236 235 235 235 235 236 236 236 238 240 242
335 337 338 338 339 339 339 338 337 335 333 328 323 320 315 309 304 298 294 289 286 283 277 266 258 253 249 246 243 241 242 241 239 239 239 238 238 237 237 239 240 242 244
327 329 331 332 333 334 334 333 332 331 328 325 320 317 312 305 300 295 290 286 282 279 277 271 264 258 253 250 246 245 245 244 243 242 241 241 241 239 239 241 242 243 245
321 323 325 326 328 328 328 327 327 326 324 321 318 313 309 303 298 294 289 285 282 278 274 270 266 262 257 253 250 248 248 246 245 244 244 244 245 243 242 242 243 244 245
315 317 319 320 322 322 322 322 321 321 319 318 315 311 307 301 296 293 288 284 281 279 275 272 268 264 262 258 254 252 250 248 248 248 247 246 246 246 245 245 245 245 246
311 313 314 315 317 317 318 317 317 317 316 315 313 309 305 299 293 289 286 283 281 279 277 273 269 266 264 261 258 256 252 250 249 248 248 247 246 247 246 246 247 246 246
308 310 311 312 313 314 314 314 313 313 313 312 311 308 304 299 290 287 285 283 280 278 276 274 271 267 265 263 261 258 255 253 252 250 249 249 246 246 246 247 247 247 247
Height
5852 5849 5846 5844 5841 5839 5836 5834 5831 5829 5828 5827 5826 5826 5826 5827 5828 5829 5831 5834 5836 5839 5842 5845 5848 5851 5854 5857 5859 5862 5865 5867 5869 5870 5872 5874 5875 5877 5879 5882 5884 5886 5888
5851 5848 5845 5842 5839 5836 5833 5831 5828 5826 5824 5823 5822 5822 5822 5823 5824 5826 5828 5830 5833 5836 5839 5843 5846 5849 5852 5855 5858 5861 5864 5866 5868 5871 5873 5875 5877 5879 5881 5883 5885 5887 5889
5850 5847 5844 5841 5838 5834 5831 5828 5825 5823 5821 5820 5819 5819 5819 5820 5821 5822 5824 5827 5830 5833 5836 5840 5843 5847 5850 5853 5856 5859 5862 5865 5868 5870 5873 5875 5877 5880 5882 5884 5886 5888 5890
5849 5846 5843 5840 5836 5833 5829 5826 5823 5821 5819 5817 5816 5815 5816 5816 5817 5819 5821 5824 5827 5830 5834 5837 5841 5844 5848 5851 5854 5857 5861 5864 5867 5869 5872 5875 5877 5880 5882 5884 5886 5888 5890
5848 5845 5842 5838 5835 5831 5827 5824 5821 5819 5816 5815 5814 5813 5813 5814 5814 5816 5818 5821 5824 5827 5831 5834 5838 5842 5845 5849 5852 5856 5859 5862 5865 5868 5871 5874 5876 5879 5881 5884 5886 5888 5890
5848 5845 5841 5837 5834 5830 5826 5823 5820 5817 5815 5813 5812 5811 5811 5811 5812 5813 5815 5818 5821 5824 5828 5832 5835 5839 5843 5846 5850 5853 5857 5860 5864 5867 5870 5873 5876 5878 5881 5883 5886 5888 5890
5847 5844 5840 5836 5833 5829 5825 5822 5819 5816 5814 5812 5810 5809 5809 5809 5810 5811 5813 5816 5818 5821 5825 5829 5833 5836 5840 5844 5847 5851 5855 5858 5862 5865 5868 5871 5874 5877 5880 5882 5885 5887 5889
5847 5844 5840 5836 5832 5828 5825 5821 5818 5815 5813 5811 5810 5808 5808 5808 5808 5810 5811 5813 5816 5819 5822 5826 5830 5833 5837 5841 5845 5849 5852 5856 5859 5863 5866 5869 5872 5875 5878 5881 5883 5886 5888
5847 5844 5840 5836 5832 5828 5825 5821 5818 5815 5812 5811 5809 5808 5807 5807 5807 5809 5810 5812 5814 5817 5820 5823 5827 5831 5834 5838 5842 5846 5850 5853 5857 5860 5864 5867 5870 5873 5876 5879 5882 5884 5887
5847 5843 5840 5836 5832 5829 5825 5822 5818 5815 5812 5811 5809 5808 5807 5807 5807 5808 5809 5811 5813 5815 5818 5821 5825 5828 5831 5835 5839 5843 5847 5850 5854 5858 5861 5864 5868 5871 5874 5877 5880 5882 5885
5847 5843 5840 5837 5833 5829 5826 5822 5819 5815 5813 5811 5810 5808 5808 5807 5807 5808 5809 5810 5812 5814 5816 5819 5822 5826 5829 5833 5836 5840 5844 5848 5851 5855 5858 5861 5865 5868 5871 5874 5877 5880 5882
5847 5844 5841 5837 5834 5830 5827 5823 5819 5816 5814 5812 5810 5809 5808 5808 5807 5808 5809 5810 5811 5813 5815 5817 5820 5823 5827 5830 5833 5837 5841 5844 5848 5851 5855 5858 5861 5864 5867 5870 5873 5876 5879
5847 5844 5841 5837 5834 5831 5828 5824 5821 5818 5815 5813 5811 5810 5809 5808 5808 5808 5809 5809 5810 5812 5814 5816 5818 5821 5824 5827 5830 5834 5837 5841 5845 5848 5851 5854 5857 5860 5863 5866 5869 5872 5874
5847 5844 5841 5838 5834 5831 5828 5825 5822 5819 5816 5814 5812 5811 5810 5809 5809 5808 5809 5809 5810 5811 5812 5814 5816 5819 5821 5824 5827 5830 5834 5837 5841 5844 5847 5850 5853 5856 5859 5862 5865 5867 5870
5848 5845 5841 5838 5834 5831 5828 5825 5822 5820 5817 5815 5813 5811 5810 5809 5809 5808 5808 5808 5809 5810 5811 5812 5814 5816 5819 5822 5824 5827 5830 5834 5837 5839 5843 5846 5849 5852 5854 5857 5860 5862 5865
5847 5844 5841 5838 5835 5831 5828 5825 5822 5820 5817 5815 5813 5811 5810 5809 5808 5808 5808 5808 5808 5809 5809 5810 5812 5813 5816 5818 5821 5823 5826 5829 5832 5835 5838 5841 5844 5846 5849 5852 5855 5857 5860
5847 5844 5841 5838 5834 5831 5828 5825 5822 5819 5817 5814 5813 5811 5810 5808 5808 5807 5807 5806 5807 5807 5807 5808 5809 5811 5812 5815 5817 5819 5822 5825 5827 5830 5833 5836 5838 5841 5844 5846 5849 5852 5854
5846 5843 5840 5837 5834 5830 5827 5824 5821 5818 5816 5813 5811 5810 5809 5807 5806 5806 5805 5805 5804 5804 5805 5805 5806 5807 5809 5811 5813 5815 5817 5820 5822 5825 5827 5830 5832 5835 5838 5840 5843 5846 5848
5844 5842 5839 5836 5832 5829 5826 5823 5820 5816 5814 5811 5810 5808 5806 5805 5804 5803 5803 5802 5802 5801 5801 5802 5803 5803 5805 5806 5808 5810 5812 5814 5816 5819 5821 5824 5826 5829 5831 5834 5836 5839 5841
5843 5840 5837 5834 5830 5827 5824 5820 5817 5814 5811 5809 5807 5805 5803 5802 5801 5800 5800 5799 5798 5798 5798 5798 5798 5799 5800 5801 5802 5804 5806 5808 5810 5812 5815 5817 5820 5822 5824 5827 5829 5832 5834
5840 5837 5834 5831 5828 5824 5821 5817 5814 5811 5807 5804 5802 5800 5799 5797 5796 5796 5795 5794 5794 5794 5794 5794 5794 5794 5795 5796 5797 5798 5800 5801 5803 5805 5807 5810 5812 5814 5817 5819 5821 5823 5826
5837 5834 5831 5828 5824 5820 5817 5813 5809 5806 5803 5799 5797 5794 5792 5791 5790 5790 5789 5789 5788 5788 5788 5788 5788 5789 5789 5790 5791 5792 5793 5795 5796 5798 5800 5802 5803 5806 5808 5810 5813 5815 5817
5833 5830 5827 5823 5820 5816 5812 5808 5804 5800 5796 5793 5790 5787 5785 5784 5783 5783 5782 5782 5781 5781 5781 5782 5782 5782 5782 5783 5784 5785 5786 5787 5788 5790 5791 5793 5795 5797 5799 5801 5803 5805 5808
5828 5825 5822 5818 5814 5810 5806 5802 5797 5793 5789 5785 5782 5779 5777 5775 5774 5774 5774 5774 5773 5773 5773 5773 5774 5774 5774 5774 5775 5776 5777 5778 5780 5781 5782 5784 5786 5788 5790 5791 5793 5796 5798
5822 5819 5815 5812 5808 5803 5799 5794 5790 5786 5781 5777 5773 5770 5767 5765 5765 5764 5764 5764 5764 5764 5764 5764 5764 5764 5765 5765 5766 5767 5768 5769 5770 5771 5772 5775 5776 5778 5780 5782 5784 5786 5788
5816 5812 5808 5804 5800 5795 5790 5786 5781 5777 5772 5768 5763 5759 5756 5754 5753 5752 5752 5753 5753 5753 5753 5753 5753 5754 5754 5754 5755 5756 5757 5758 5759 5761 5762 5764 5766 5767 5770 5772 5774 5776 5778